Location: Asheville, NC
(35.6000°N, 82.5500°W)
Time: 23:27:16
(UTC-04:00)

Hubble Space Telescope - Pass Details

Date: 08 December 2017
Orbit: 537 x 541 km, 28.5° (Epoch: 17 June)

Event Time Altitude Azimuth Distance (km) Brightness Sun altitude
Rises 18:06:40 0° 220° (SW) 2,670 5.5 -10.0°
Reaches altitude 10° 18:09:42 10° 197° (SSW) 1,782 4.0 -10.6°
Maximum altitude 18:12:07 15° 161° (SSE) 1,483 3.0 -11.1°
Drops below altitude 10° 18:14:32 10° 125° (SE) 1,785 3.1 -11.5°
Enters shadow 18:15:22 - 117° (ESE) 1,993 3.3 -11.7°
